Flag for Germany Weather past 2 weeks in Jülich, North Rhine-Westphalia, Germany

Now
41 °F

Passing clouds.


Feels Like: 35 °F
Forecast: 37 / 43 °F
Wind: 9 mph from Northwest

Location: Geilenkirchen Airport

Current Time: Jan 26, 2015 at 9:53:19 PM

Latest Report: Jan 26, 2015 at 8:50 PM


Visibility: N/A

Pressure: 30.15 "Hg

Humidity: 87%

Dew point: 37 °F

Location of JülichLocation

Historic Weather in Jülich — Graph

°F

Jülich temperature yesterday

Maximum temperature yesterday: 37 °F (at 7:50 PM)
Minimum temperature yesterday: 37 °F (at 7:50 PM)
Average temperature yesterday: 37 °F

Past Weeks' High & Low Weather Summary

 TemperatureHumidityPressure
High54 °F (Jan 13, 12:50 PM)100% (Jan 19, 7:50 AM)30.39 "Hg (Jan 19, 7:50 AM)
Low27 °F (Jan 19, 5:50 AM)62% (Jan 13, 10:50 AM)29.42 "Hg (Jan 15, 2:50 PM)
Average39 °F83%29.91 "Hg
* Reported Jan 12 12:50 AM — Jan 26 8:50 PM, Jülich, Weather by CustomWeather, © 2014

Note: Actual official high and low records may vary slightly from our data, if they occured in-between our weather recording intervals... More about our weather records

Advertising

Jülich weather history for previous 24 hours

 ConditionsComfort  
Time TempWeatherWind HumidityBarometerVisibility
8:50 PM
Jan 26
41 °FPassing clouds.9 mph87%30.15 "HgN/A
7:50 PM43 °FPassing clouds.8 mph87%30.12 "HgN/A
6:50 PM43 °FClear.7 mph87%30.09 "Hg10 mi
5:50 PM45 °FPassing clouds.12 mph93%30.09 "HgN/A
4:50 PM43 °FDrizzle. Fog.10 mph100%30.07 "Hg1 mi
3:50 PM43 °FDrizzle. Fog.10 mph93%30.04 "Hg3 mi
2:50 PM41 °FDrizzle. Fog.12 mph100%30.07 "Hg1 mi
1:50 PM41 °FDrizzle. Fog.13 mph100%30.09 "Hg1 mi
12:50 PM41 °FDrizzle. Fog.12 mph93%30.09 "Hg1 mi
11:50 AM41 °FMore clouds than sun.12 mph93%30.12 "Hg5 mi
10:50 AM39 °FDrizzle. Fog.10 mph100%30.15 "Hg2 mi
9:50 AM39 °FDrizzle. Fog.10 mph93%30.15 "Hg2 mi
8:50 AM39 °FDrizzle. Fog.9 mph93%30.18 "Hg2 mi
7:50 AM37 °FDrizzle. Low clouds.7 mph100%30.18 "Hg2 mi
6:50 AM37 °FDrizzle. Low clouds.7 mph100%30.21 "Hg5 mi
5:50 AM37 °FLow clouds.8 mph93%30.21 "HgN/A
4:50 AM37 °FMostly cloudy.8 mph93%30.24 "HgN/A
3:50 AM37 °FDrizzle. Low clouds.8 mph93%30.27 "Hg5 mi
2:50 AM37 °FDrizzle. Fog.8 mph93%30.30 "Hg3 mi
1:50 AM37 °FDrizzle. Fog.7 mph93%30.30 "Hg2 mi
12:50 AM37 °FDrizzle. Fog.7 mph93%30.33 "Hg3 mi
11:50 PM
Jan 25
37 °FDrizzle. Mostly cloudy.8 mph93%30.33 "Hg5 mi
10:50 PM37 °FDrizzle. Mostly cloudy.8 mph93%30.36 "Hg4 mi
9:50 PM37 °FDrizzle. Fog.6 mph93%30.36 "Hg2 mi
Weather by CustomWeather, © 2014

See weather overviewHow to use our weather pages